TimeCST,TemperatureF,Dew PointF,Humidity,Sea Level PressureIn,VisibilityMPH,Wind Direction,Wind SpeedMPH,Gust SpeedMPH,PrecipitationIn,Events,Conditions,WindDirDegrees,DateUTC
12:53 AM,37.0,24.1,59,29.81,10.0,SSW,11.5,-,0.00,,Light Drizzle,210,2014-01-16 06:53:00
1:53 AM,37.0,23.0,57,29.81,10.0,SW,8.1,-,0.00,,Overcast,220,2014-01-16 07:53:00
2:53 AM,36.0,24.1,62,29.81,10.0,WSW,8.1,-,N/A,,Mostly Cloudy,250,2014-01-16 08:53:00
3:53 AM,35.1,24.1,64,29.76,10.0,SSW,10.4,-,N/A,,Scattered Clouds,210,2014-01-16 09:53:00
4:53 AM,34.0,24.1,67,29.77,10.0,WSW,10.4,-,N/A,,Scattered Clouds,240,2014-01-16 10:53:00
5:53 AM,37.9,25.0,60,29.78,10.0,West,9.2,-,N/A,,Scattered Clouds,280,2014-01-16 11:53:00
6:53 AM,42.1,26.1,53,29.80,10.0,West,12.7,-,N/A,,Scattered Clouds,280,2014-01-16 12:53:00
7:53 AM,42.1,21.9,45,29.81,10.0,NW,18.4,33.4,N/A,,Mostly Cloudy,310,2014-01-16 13:53:00
8:53 AM,43.0,21.0,42,29.84,10.0,WNW,16.1,28.8,N/A,,Mostly Cloudy,300,2014-01-16 14:53:00
9:53 AM,44.1,21.0,40,29.86,10.0,WNW,17.3,28.8,N/A,,Mostly Cloudy,290,2014-01-16 15:53:00
10:53 AM,46.0,19.9,35,29.85,10.0,WNW,21.9,31.1,N/A,,Mostly Cloudy,290,2014-01-16 16:53:00
11:53 AM,44.1,18.0,35,29.84,10.0,WNW,19.6,35.7,N/A,,Mostly Cloudy,300,2014-01-16 17:53:00
12:53 PM,45.0,18.0,34,29.82,10.0,WNW,26.5,35.7,N/A,,Mostly Cloudy,300,2014-01-16 18:53:00
1:53 PM,44.1,19.0,37,29.82,10.0,WNW,19.6,36.8,N/A,,Mostly Cloudy,300,2014-01-16 19:53:00
2:53 PM,43.0,17.1,35,29.83,10.0,WNW,21.9,33.4,N/A,,Mostly Cloudy,300,2014-01-16 20:53:00
3:53 PM,43.0,17.1,35,29.85,10.0,WNW,24.2,33.4,N/A,,Mostly Cloudy,290,2014-01-16 21:53:00
4:53 PM,39.0,19.9,46,29.87,10.0,WNW,16.1,-,N/A,,Scattered Clouds,300,2014-01-16 22:53:00
5:53 PM,37.0,21.9,54,29.89,10.0,NNW,20.7,31.1,0.00,,Scattered Clouds,330,2014-01-16 23:53:00
6:53 PM,32.0,12.0,44,29.94,10.0,NNW,26.5,44.9,N/A,,Mostly Cloudy,330,2014-01-17 00:53:00
7:53 PM,28.0,9.0,45,29.99,10.0,NNW,19.6,31.1,N/A,,Scattered Clouds,340,2014-01-17 01:53:00
8:53 PM,25.0,8.1,49,30.02,10.0,NNW,32.2,41.4,N/A,,Scattered Clouds,330,2014-01-17 02:53:00
9:53 PM,21.9,9.0,58,30.06,10.0,NNW,23.0,34.5,N/A,,Mostly Cloudy,330,2014-01-17 03:53:00
10:53 PM,19.0,10.0,68,30.07,3.0,NNW,20.7,31.1,0.00,Snow,Light Snow,330,2014-01-17 04:53:00
11:53 PM,19.0,10.9,71,30.08,6.0,NNW,15.0,-,0.00,Snow,Light Snow,330,2014-01-17 05:53:00